PEGASUS DEB, 24817

Orbit data source: Space-Track

PEGASUS DEB, 24817 is space debris in LEO originally from a launch on Thu, 19 May 1994 UTC launched from the Air Force Western Test Range (AFWTR). Debris objects in space refer to the collection of defunct objects orbiting the Earth. Examples of debris include non-operational satellites, rocket bodies, and fragments generated from explosions, collisions, or faulty payload assembly.

Loading next visibility...
Identifier
24817, 1994-029ABU
Orbit
LEO
Country
Flag of USUS
Related business
Manufacturer
Unknown
Mission
Spacecraft
Bus & Motor
Unknown
Mass
Unknown
Launch date (UTC)
1994-05-19 (32 years ago)
Launch vehicle
Unknown
Launch site
Air Force Western Test Range (AFWTR)
Object type
Payload
Rocket body
Debris
Shape & HBR
Unknown shape, 0.1 m
Radar Cross Section
Small (<0.1 m²)

Expand to show TLE details & history
Last TLE update: 1 day ago

TLE from 1 day ago
0 PEGASUS DEB
1 24817U 94029ABU 26067.41331199  .00004738  00000-0  11603-2 0  9993
2 24817  81.6850  93.5097 0361051  18.2292  45.8022 14.19535939506387
Epoch: 2026-03-08T09:55Z
TLE epoch observation values (Epoch: 2026-03-08T09:55:10.155Z)
Latitude
65.79626°
Longitude
157.46383°
Altitude
661.892 km
Speed
7.624 km/s
True Right ascension
07h 29m 30s
True Declination
65° 39' 56"
Sunlit
Object was in daylight at epoch
Visualization orbit readout
Latitude
Unknown
Longitude
Unknown
Altitude
Unknown
Speed
Unknown
Apparent Right ascension
Unknown
Apparent Declination
Unknown
Sunlit
N/A
Visualization observer readout
Local Sidereal Time
18:53:38
Azimuth
Unknown
Elevation
Unknown
Doppler factor
Unknown
Orbital elements
Apogee altitude
1,084.094 km
Perigee altitude
564.022 km
Semi-major axis
7,202.195 km
Eccentricity
0.03611
Inclination
81.685°
RAAN
93.5097°
Arg. of periapsis
18.2292°
True anomaly
48.86318°
Mean anomaly
45.8022°
Eccentric anomaly
47.32306°
Mean motion
3.55096 °/min
Orbital period
101.38 mins
BSTAR
0.0011603
Loading maneuver chart data...
Computing Atmospheric mass density...

Documentation

Showing up to 5 results
|